This is the latest recevied weather packets stored in our database for station/object KJ6APE. If no packets are shown the sender has not sent any weather packets the latest 10 day(s).
| Time | Temp. | Humidity | Pressure | Rain* | Wind** | Luminosity | Snow |
|---|---|---|---|---|---|---|---|
| 1777731817 | 13.33° C | 80% | 1012.8 hPa | 0 mm | - | 92 W/m² | - |
| 1777731513 | 13.33° C | 81% | 1012.7 hPa | 0 mm | - | 85 W/m² | - |
| 1777731212 | 13.33° C | 81% | 1012.7 hPa | 0 mm | - | 78 W/m² | - |
| 1777730909 | 13.33° C | 82% | 1012.5 hPa | 0 mm | - | 72 W/m² | - |
| 1777730607 | 12.78° C | 82% | 1012.5 hPa | 0 mm | - | 58 W/m² | - |
| 1777730303 | 12.78° C | 82% | 1012.6 hPa | 0 mm | - | 46 W/m² | - |
| 1777730000 | 12.78° C | 83% | 1012.6 hPa | 0 mm | - | 39 W/m² | - |
| 1777729696 | 12.78° C | 83% | 1012.5 hPa | 0 mm | - | 31 W/m² | - |
| 1777729393 | 12.78° C | 83% | 1012.5 hPa | 0 mm | - | 24 W/m² | - |
| 1777729089 | 12.78° C | 83% | 1012.4 hPa | 0 mm | - | 18 W/m² | - |
| 1777728786 | 12.78° C | 83% | 1012.5 hPa | 0 mm | - | 11 W/m² | - |
| 1777728483 | 12.78° C | 83% | 1012.3 hPa | 0 mm | - | 9 W/m² | - |
| 1777728180 | 12.78° C | 83% | 1012.3 hPa | 0 mm | - | 6 W/m² | - |
| 1777727877 | 12.78° C | 83% | 1012.4 hPa | 0 mm | - | 3 W/m² | - |
| 1777727574 | 12.78° C | 83% | 1012.3 hPa | 0 mm | - | 2 W/m² | - |
| 1777727271 | 12.78° C | 83% | 1012.3 hPa | 0 mm | - | 1 W/m² | - |
| 1777726969 | 12.78° C | 83% | 1012.1 hPa | 0 mm | - | 1 W/m² | - |
| 1777726665 | 12.78° C | 83% | 1012.2 hPa | 0 mm | - | 0 W/m² | - |
| 1777726362 | 12.78° C | 83% | 1012.2 hPa | 0 mm | - | 0 W/m² | - |
| 1777726059 | 12.78° C | 84% | 1012.3 hPa | 0 mm | - | 0 W/m² | - |
| 1777725756 | 12.78° C | 84% | 1012.4 hPa | 0 mm | - | 0 W/m² | - |
| 1777725455 | 12.78° C | 84% | 1011.9 hPa | 0 mm | - | 0 W/m² | - |
| 1777725151 | 12.78° C | 84% | 1012.2 hPa | 0 mm | - | 0 W/m² | - |
| 1777724848 | 12.78° C | 84% | 1012.2 hPa | 0 mm | - | 0 W/m² | - |
| 1777724544 | 12.78° C | 85% | 1012.1 hPa | 0 mm | - | 0 W/m² | - |
* Rain latest hour (hover to see other rain measurements)
** Current wind speed in m/s (hover to see current wind gust speed)